Location: Newark
(52.2121°N, 1.8547°W)
Time: 07:01:36
(UTC+00:00)

N. Korean satellite - Visible Passes

Search period start: 27 January 2020 00:00
Search period end: 06 February 2020 00:00
Orbit: 454 x 507 km, 97.2° (Epoch: 26 January)

Date Brightness Start Highest point End Pass type
(mag) Time Alt. Az. Time Alt. Az. Time Alt. Az.
27 Jan 9.9 04:53:24 10° ENE 04:55:13 13° E 04:57:03 10° ESE visible
27 Jan 6.5 06:25:27 10° N 06:28:59 61° WNW 06:32:33 10° SSW visible
28 Jan 6.9 05:59:54 10° NNE 06:03:29 69° ESE 06:07:06 10° S visible
28 Jan 10.0 18:16:18 10° WSW 18:17:51 13° W 18:19:25 10° WNW visible
29 Jan 8.2 05:34:33 10° NNE 05:37:55 35° E 05:41:17 10° SSE visible
29 Jan 7.7 07:08:17 10° NNW 07:11:10 23° WNW 07:14:04 10° WSW visible
29 Jan 9.3 17:49:20 10° SSW 17:52:07 23° W 17:54:55 10° NW visible
30 Jan 9.4 05:09:31 10° NE 05:12:14 20° E 05:14:59 10° SE visible
30 Jan 7.0 06:42:24 10° N 06:45:48 40° WNW 06:49:14 10° SW visible
30 Jan 8.0 17:23:10 10° S 17:26:27 42° W 17:29:47 10° NNW visible
31 Jan 10.1 04:45:21 10° ENE 04:46:29 11° E 04:47:37 10° ESE visible
31 Jan 6.5 06:16:44 10° N 06:20:21 77° WNW 06:24:01 10° SSW visible
01 Feb 7.3 05:51:15 10° NNE 05:54:50 55° E 05:58:26 10° S visible
01 Feb 9.8 18:06:58 10° SW 18:09:06 15° W 18:11:15 10° NW visible
02 Feb 8.7 05:26:00 10° NNE 05:29:13 29° E 05:32:28 10° SSE visible
02 Feb 7.5 06:59:26 10° N 07:02:34 27° WNW 07:05:43 10° SW visible
02 Feb 8.9 17:40:22 10° SSW 17:43:22 28° W 17:46:25 10° NW visible
03 Feb 9.7 05:01:06 10° NE 05:03:31 17° E 05:05:57 10° SE visible
03 Feb 6.8 06:33:38 10° N 06:37:10 49° WNW 06:40:44 10° SSW visible
04 Feb 6.6 06:08:01 10° NNE 06:11:42 86° ESE 06:15:23 10° SSW visible
04 Feb 10.4 18:25:31 10° W 18:26:07 10° W 18:26:42 10° WNW visible
05 Feb 7.8 05:42:36 10° NNE 05:46:08 44° E 05:49:42 10° S visible
05 Feb 9.7 17:57:47 10° SW 18:00:19 19° W 18:02:53 10° NW visible
